Regional Weather Roundup
Issued by NWS Sioux Falls, SD

Home | Current Version | Previous Version | Graphics & Text | Print | Product List | Glossary Off
Versions: 1 2 3 4 5 6 7 8 9 10 11 12 13 14 15 16 17 18 19 20 21 22 23 24 25 26 27 28 29 30 31 32 33 34 35 36 37 38 39 40 41 42 43 44 45 46 47 48 49 50

000
ASUS43 KFSD 141702
RWRFSD

WEATHER ROUNDUP FOR SE SOUTH DAKOTA/SW MINNESOTA/NW IOWA
NATIONAL WEATHER SERVICE SIOUX FALLS SD
1100 AM CST SUN FEB 14 2016

NOTE: "FAIR" INDICATES FEW OR NO CLOUDS BELOW 12,000 FEET WITH NO
SIGNIFICANT WEATHER AND OR OBSTRUCTIONS TO VISIBILITY.


SDZ038>040-050-052>070-141800-
SOUTHEAST SOUTH DAKOTA

CITY           SKY/WX    TMP DP  RH WIND       PRES   REMARKS
BROOKINGS      LGT SNOW  16  11  80 S14       29.82S WCI   2
CHAMBERLAIN    NOT AVBL
HURON          CLOUDY    18  13  80 S8        29.83S WCI   8
MADISON        PTSUNNY   16  16 100 S10       29.81S WCI   3
MITCHELL       CLOUDY    19  15  84 S8        29.84F WCI   9
SIOUX FALLS    CLOUDY    17  13  84 S9        29.84F WCI   6
WINNER         FAIR      40  31  70 NW10      29.80F
YANKTON        CLOUDY    21  16  79 E3        29.84F
$$

MNZ071-072-080-081-089-090-097-098-141800-
SOUTHWEST MINNESOTA

CITY           SKY/WX    TMP DP  RH WIND       PRES   REMARKS
FAIRMONT       CLOUDY    18  10  73 SE23      29.91S WCI   0
JACKSON        LGT SNOW  18  12  79 SE13      29.89F WCI   4
LUVERNE        CLOUDY    19  14  79 S10       29.85F WCI   8
MARSHALL       CLOUDY    18  11  74 S16       29.89F WCI   3
MONTEVIDEO     CLOUDY    18  12  79 S10G21    29.92S WCI   6
PIPESTONE      LGT SNOW  18   9  68 S12       29.82S WCI   5
REDWOOD FALLS  LGT SNOW  17  12  80 S21G26    29.93F WCI   0
TRACY          CLOUDY    18  13  80 S14G20    29.88S WCI   4
WINDOM         LGT SNOW  18  12  79 SE12      29.89S WCI   5
WORTHINGTON    CLOUDY    16  10  79 S13       29.86F WCI   2
$$

IAZ001>003-012>014-020>022-031-032-NEZ013-014-SDZ071-141800-
NORTHWEST IOWA

CITY           SKY/WX    TMP DP  RH WIND       PRES   REMARKS
ESTHERVILLE    CLOUDY    15  13  91 SE16      29.90F FOG     WCI  -1
SIOUX CITY     CLOUDY    22  16  78 S8        29.87F WCI  12
SPENCER        CLOUDY    17  12  80 SE17      29.89S HAZE    WCI   1
STORM LAKE     PTSUNNY   18  18 100 SE14      29.86F WCI   4
$$

ABBREVIATIONS USED IN REMARKS
   TC - TEMPERATURE IN CELSIUS
  WCI - WIND CHILL INDEX
   HX - HEAT INDEX
  VSB - VISIBILITY




USA.gov is the U.S. government's official web portal to all federal, state and local government web resources and services.